| time (UTC) | temp F | wind direction | speed knots | gust knots | rain 1hr in | rain 24hr in | rain mn in | humidity % | barometer mb |
| 20260506222125 | 36 | 287 | 0.0 | 0.9 | 0.00 | 0.00 | 0.00 | 78 | 1008.9 |
| 20260506221226 | 36 | 294 | 0.0 | 1.7 | 0.00 | 0.00 | 0.00 | 77 | 1008.9 |
| 20260506220536 | 37 | 292 | 0.9 | 1.7 | 0.00 | 0.00 | 0.00 | 76 | 1008.9 |
| 20260506215426 | 37 | 183 | 0.9 | 1.7 | 0.00 | 0.00 | 0.00 | 75 | 1008.9 |
| 20260506214525 | 37 | 180 | 0.9 | 1.7 | 0.00 | 0.00 | 0.00 | 75 | 1009.0 |
| 20260506213625 | 37 | 180 | 0.0 | 1.7 | 0.00 | 0.00 | 0.00 | 75 | 1008.7 |
| 20260506212727 | 37 | 187 | 0.9 | 1.7 | 0.00 | 0.00 | 0.00 | 78 | 1008.6 |
| 20260506211825 | 38 | 229 | 0.9 | 1.7 | 0.00 | 0.00 | 0.00 | 78 | 1008.8 |
| 20260506210925 | 38 | 135 | 0.0 | 1.7 | 0.00 | 0.00 | 0.00 | 76 | 1008.5 |
| 20260506210026 | 38 | 202 | 0.0 | 0.9 | 0.00 | 0.00 | 0.00 | 76 | 1008.6 |
| 20260506205335 | 38 | 202 | 0.0 | 0.9 | 0.00 | 0.00 | 0.00 | 75 | 1008.6 |
| 20260506204227 | 39 | 207 | 0.9 | 1.7 | 0.00 | 0.00 | 0.00 | 75 | 1008.5 |
| 20260506203325 | 39 | 184 | 1.7 | 1.7 | 0.00 | 0.00 | 0.00 | 74 | 1008.4 |
| 20260506202425 | 39 | 184 | 0.9 | 1.7 | 0.00 | 0.00 | 0.00 | 73 | 1008.4 |
| 20260506201526 | 39 | 176 | 0.0 | 1.7 | 0.00 | 0.00 | 0.00 | 71 | 1008.5 |
| 20260506200837 | 40 | 146 | 1.7 | 1.7 | 0.00 | 0.00 | 0.00 | 70 | 1008.6 |
| 20260506195728 | 40 | 170 | 1.7 | 2.6 | 0.00 | 0.00 | 0.00 | 68 | 1008.7 |
| 20260506194825 | 41 | 173 | 1.7 | 2.6 | 0.00 | 0.00 | 0.00 | 68 | 1008.6 |
| 20260506194139 | 41 | 168 | 1.7 | 2.6 | 0.00 | 0.00 | 0.00 | 65 | 1008.6 |
| 20260506193026 | 42 | 191 | 1.7 | 2.6 | 0.00 | 0.00 | 0.00 | 63 | 1008.8 |
| 20260506192125 | 42 | 341 | 1.7 | 2.6 | 0.00 | 0.00 | 0.00 | 62 | 1008.7 |
| 20260506191227 | 42 | 340 | 1.7 | 2.6 | 0.00 | 0.00 | 0.00 | 62 | 1008.7 |
| 20260506190326 | 42 | 340 | 2.6 | 3.5 | 0.00 | 0.00 | 0.00 | 62 | 1008.5 |
| 20260506185425 | 42 | 329 | 2.6 | 3.5 | 0.00 | 0.00 | 0.00 | 61 | 1008.5 |
| 20260506184526 | 43 | 341 | 2.6 | 3.5 | 0.00 | 0.00 | 0.00 | 60 | 1008.7 |
| 20260506183625 | 43 | 309 | 3.5 | 3.5 | 0.00 | 0.00 | 0.00 | 61 | 1008.4 |
| 20260506182726 | 43 | 333 | 2.6 | 3.5 | 0.00 | 0.00 | 0.00 | 61 | 1008.4 |
| 20260506181826 | 43 | 327 | 2.6 | 3.5 | 0.00 | 0.00 | 0.00 | 61 | 1008.3 |
| 20260506180925 | 44 | 317 | 2.6 | 3.5 | 0.00 | 0.00 | 0.00 | 60 | 1008.4 |
| 20260506180025 | 44 | 305 | 2.6 | 3.5 | 0.00 | 0.00 | 0.00 | 59 | 1008.3 |
| 20260506175125 | 45 | 298 | 2.6 | 3.5 | 0.00 | 0.00 | 0.00 | 57 | 1008.4 |
| 20260506174227 | 45 | 307 | 1.7 | 3.5 | 0.00 | 0.00 | 0.00 | 55 | 1008.3 |
| 20260506173325 | 46 | 301 | 1.7 | 3.5 | 0.00 | 0.00 | 0.00 | 53 | 1008.5 |
| 20260506172425 | 46 | 278 | 2.6 | 3.5 | 0.00 | 0.00 | 0.00 | 51 | 1008.6 |
| 20260506171525 | 46 | 315 | 1.7 | 2.6 | 0.00 | 0.00 | 0.00 | 50 | 1008.5 |
| 20260506170625 | 46 | 286 | 1.7 | 3.5 | 0.00 | 0.00 | 0.00 | 51 | 1008.4 |
| 20260506165727 | 47 | 323 | 1.7 | 3.5 | 0.00 | 0.00 | 0.00 | 50 | 1008.3 |
| 20260506164825 | 47 | 284 | 2.6 | 4.3 | 0.00 | 0.00 | 0.00 | 47 | 1008.8 |
| 20260506163926 | 48 | 299 | 2.6 | 4.3 | 0.00 | 0.00 | 0.00 | 46 | 1008.5 |
| 20260506163025 | 49 | 278 | 3.5 | 5.2 | 0.00 | 0.00 | 0.00 | 43 | 1008.5 |
| 20260506162126 | 49 | 302 | 4.3 | 6.1 | 0.00 | 0.00 | 0.00 | 41 | 1008.5 |
| 20260506161225 | 51 | 296 | 4.3 | 7.0 | 0.00 | 0.00 | 0.00 | 40 | 1008.6 |
| 20260506160326 | 51 | 304 | 3.5 | 6.1 | 0.00 | 0.00 | 0.00 | 42 | 1008.6 |
| 20260506155426 | 50 | 335 | 3.5 | 6.1 | 0.00 | 0.00 | 0.00 | 47 | 1008.7 |
| 20260506154735 | 49 | 301 | 3.5 | 6.1 | 0.00 | 0.00 | 0.00 | 49 | 1008.5 |
| 20260506153625 | 49 | 303 | 5.2 | 7.0 | 0.00 | 0.00 | 0.00 | 49 | 1008.7 |
| 20260506152726 | 50 | 294 | 4.3 | 7.0 | 0.00 | 0.00 | 0.00 | 47 | 1008.9 |
| 20260506152037 | 50 | 293 | 4.3 | 6.1 | 0.00 | 0.00 | 0.00 | 46 | 1009.0 |
| 20260506151139 | 50 | 298 | 4.3 | 7.0 | 0.00 | 0.00 | 0.00 | 48 | 1008.8 |
| 20260506150236 | 49 | 293 | 5.2 | 7.0 | 0.00 | 0.00 | 0.00 | 50 | 1009.1 |
| 20260506145125 | 49 | 283 | 5.2 | 6.1 | 0.00 | 0.00 | 0.00 | 50 | 1008.8 |
| 20260506144225 | 49 | 294 | 5.2 | 7.0 | 0.00 | 0.00 | 0.00 | 51 | 1009.0 |
| 20260506143326 | 49 | 295 | 5.2 | 7.0 | 0.00 | 0.00 | 0.00 | 50 | 1009.1 |
| 20260506142636 | 48 | 291 | 7.0 | 9.6 | 0.00 | 0.00 | 0.00 | 45 | 1009.0 |
| 20260506141525 | 50 | 286 | 6.1 | 7.0 | 0.00 | 0.00 | 0.00 | 43 | 1009.4 |
| 20260506140625 | 50 | 304 | 6.1 | 8.7 | 0.00 | 0.00 | 0.00 | 41 | 1009.4 |
| 20260506135725 | 51 | 274 | 7.0 | 9.6 | 0.00 | 0.00 | 0.00 | 39 | 1009.1 |
| 20260506134825 | 51 | 289 | 6.1 | 8.7 | 0.00 | 0.00 | 0.00 | 38 | 1009.2 |
| 20260506133925 | 53 | 285 | 6.1 | 8.7 | 0.00 | 0.00 | 0.00 | 34 | 1009.3 |
| 20260506133025 | 52 | 290 | 5.2 | 7.8 | 0.00 | 0.00 | 0.00 | 37 | 1009.0 |
| 20260506132126 | 51 | 310 | 7.0 | 9.6 | 0.00 | 0.00 | 0.00 | 40 | 1009.1 |
| 20260506131230 | 51 | 280 | 7.0 | 9.6 | 0.00 | 0.00 | 0.00 | 35 | 1009.0 |
| 20260506130325 | 52 | 285 | 7.0 | 9.6 | 0.00 | 0.00 | 0.00 | 32 | 1009.3 |
| 20260506125425 | 54 | 302 | 8.7 | 9.6 | 0.00 | 0.00 | 0.00 | 28 | 1009.0 |
| 20260506124525 | 54 | 297 | 7.0 | 8.7 | 0.00 | 0.00 | 0.00 | 31 | 1008.7 |
| 20260506123839 | 52 | 288 | 6.1 | 9.6 | 0.00 | 0.00 | 0.00 | 31 | 1008.8 |
| 20260506122727 | 53 | 313 | 7.8 | 9.6 | 0.00 | 0.00 | 0.00 | 30 | 1009.1 |
| 20260506121826 | 55 | 288 | 6.1 | 8.7 | 0.00 | 0.00 | 0.00 | 29 | 1009.1 |
| 20260506120926 | 54 | 305 | 7.0 | 9.6 | 0.00 | 0.00 | 0.00 | 30 | 1009.1 |
| 20260506120025 | 53 | 292 | 7.8 | 9.6 | 0.00 | 0.00 | 0.00 | 29 | 1009.0 |
| 20260506115336 | 54 | 289 | 8.7 | 10.4 | 0.00 | 0.00 | 0.00 | 28 | 1008.9 |
| 20260506114226 | 56 | 315 | 7.0 | 9.6 | 0.00 | 0.00 | 0.00 | 32 | 1009.0 |
| 20260506113325 | 56 | 321 | 7.0 | 9.6 | 0.00 | 0.00 | 0.00 | 32 | 1009.1 |
| 20260506112426 | 55 | 309 | 7.0 | 9.6 | 0.00 | 0.00 | 0.00 | 30 | 1009.2 |
| 20260506111525 | 54 | 297 | 7.8 | 9.6 | 0.00 | 0.00 | 0.00 | 28 | 1009.2 |
| 20260506110625 | 55 | 298 | 7.8 | 9.6 | 0.00 | 0.00 | 0.00 | 29 | 1009.2 |
| 20260506105725 | 54 | 296 | 7.8 | 9.6 | 0.00 | 0.00 | 0.00 | 29 | 1009.1 |
| 20260506104825 | 54 | 322 | 7.8 | 13.0 | 0.00 | 0.00 | 0.00 | 31 | 1009.3 |
| 20260506104139 | 53 | 279 | 8.7 | 11.3 | 0.00 | 0.00 | 0.00 | 31 | 1009.2 |
| 20260506103025 | 53 | 282 | 8.7 | 12.2 | 0.00 | 0.00 | 0.00 | 33 | 1009.0 |
| 20260506102125 | 53 | 285 | 8.7 | 9.6 | 0.00 | 0.00 | 0.00 | 32 | 1009.2 |
| 20260506101226 | 53 | 277 | 7.8 | 9.6 | 0.00 | 0.00 | 0.00 | 34 | 1009.1 |
| 20260506100325 | 53 | 306 | 7.8 | 11.3 | 0.00 | 0.00 | 0.00 | 39 | 1009.1 |
| 20260506095425 | 52 | 291 | 8.7 | 11.3 | 0.00 | 0.00 | 0.00 | 37 | 1009.0 |
| 20260506094525 | 52 | 294 | 7.8 | 11.3 | 0.00 | 0.00 | 0.00 | 40 | 1009.1 |
| 20260506093625 | 51 | 302 | 9.6 | 10.4 | 0.00 | 0.00 | 0.00 | 40 | 1008.9 |
| 20260506092727 | 51 | 281 | 9.6 | 13.0 | 0.00 | 0.00 | 0.00 | 38 | 1009.0 |
| 20260506092035 | 52 | 289 | 7.8 | 13.0 | 0.00 | 0.00 | 0.00 | 39 | 1008.9 |
| 20260506091138 | 51 | 288 | 7.8 | 10.4 | 0.00 | 0.00 | 0.00 | 40 | 1008.9 |
| 20260506090025 | 51 | 259 | 9.6 | 12.2 | 0.00 | 0.00 | 0.00 | 38 | 1008.5 |
| 20260506085125 | 51 | 302 | 8.7 | 12.2 | 0.00 | 0.00 | 0.00 | 42 | 1008.8 |
| 20260506084227 | 51 | 289 | 7.0 | 9.6 | 0.00 | 0.00 | 0.00 | 46 | 1008.3 |
| 20260506083325 | 51 | 286 | 7.0 | 9.6 | 0.00 | 0.00 | 0.00 | 45 | 1008.6 |
| 20260506082425 | 51 | 294 | 7.0 | 9.6 | 0.00 | 0.00 | 0.00 | 42 | 1008.3 |
| 20260506081525 | 51 | 286 | 7.0 | 10.4 | 0.00 | 0.00 | 0.00 | 43 | 1008.5 |
| 20260506080625 | 50 | 300 | 7.0 | 8.7 | 0.00 | 0.00 | 0.00 | 39 | 1008.5 |
| 20260506073239 | 49 | 303 | 7.8 | 9.6 | 0.00 | 0.00 | 0.00 | 44 | 1008.3 |
| 20260506072125 | 49 | 294 | 7.8 | 9.6 | 0.00 | 0.00 | 0.00 | 47 | 1007.9 |
| 20260506071226 | 48 | 286 | 8.7 | 10.4 | 0.00 | 0.00 | 0.00 | 52 | 1008.0 |
| 20260506070325 | 49 | 273 | 7.8 | 9.6 | 0.00 | 0.00 | 0.00 | 55 | 1007.9 |
| 20260506061825 | 49 | 236 | 6.1 | 7.8 | 0.00 | 0.00 | 0.00 | 71 | 1007.9 |
| 20260506061135 | 46 | 276 | 7.0 | 9.6 | 0.00 | 0.00 | 0.00 | 73 | 1007.7 |
| 20260506050625 | 45 | 264 | 8.7 | 12.2 | 0.00 | 0.00 | 0.00 | 83 | 1007.3 |
| 20260506044825 | 43 | 261 | 7.0 | 10.4 | 0.00 | 0.00 | 0.00 | 90 | 1007.2 |
| 20260506043925 | 42 | 325 | 7.8 | 10.4 | 0.00 | 0.00 | 0.00 | 92 | 1007.0 |
| 20260506043025 | 42 | 297 | 7.8 | 10.4 | 0.00 | 0.00 | 0.00 | 93 | 1006.8 |
| 20260506042125 | 41 | 242 | 6.1 | 10.4 | 0.00 | 0.00 | 0.00 | 94 | 1007.0 |
| 20260506041440 | 41 | 232 | 6.1 | 8.7 | 0.00 | 0.00 | 0.00 | 94 | 1006.7 |
| 20260506040325 | 41 | 235 | 5.2 | 7.0 | 0.00 | 0.00 | 0.00 | 95 | 1006.5 |
| 20260506035425 | 41 | 240 | 5.2 | 9.6 | 0.00 | 0.00 | 0.00 | 96 | 1006.5 |
| 20260506034525 | 41 | 294 | 7.0 | 10.4 | 0.00 | 0.00 | 0.00 | 98 | 1006.4 |
| 20260506033625 | 40 | 260 | 7.0 | 10.4 | 0.00 | 0.00 | 0.00 | 99 | 1006.4 |
| 20260506032726 | 39 | 267 | 5.2 | 7.0 | 0.00 | 0.00 | 0.00 | 99 | 1006.2 |
| 20260506031825 | 39 | 265 | 5.2 | 7.0 | 0.00 | 0.00 | 0.00 | 99 | 1006.2 |
| 20260506030926 | 38 | 243 | 3.5 | 7.0 | 0.00 | 0.00 | 0.00 | 99 | 1006.3 |
| 20260506030025 | 36 | 250 | 2.6 | 3.5 | 0.00 | 0.00 | 0.00 | 97 | 1005.9 |
| 20260506025125 | 35 | 232 | 1.7 | 3.5 | 0.00 | 0.00 | 0.00 | 97 | 1005.9 |
| 20260506024227 | 34 | 223 | 1.7 | 2.6 | 0.00 | 0.00 | 0.00 | 97 | 1005.8 |
| 20260506023325 | 34 | 251 | 1.7 | 3.5 | 0.00 | 0.00 | 0.00 | 97 | 1005.7 |
| 20260506022638 | 34 | 260 | 1.7 | 2.6 | 0.00 | 0.00 | 0.00 | 97 | 1005.5 |
| 20260506021525 | 34 | 208 | 2.6 | 3.5 | 0.00 | 0.00 | 0.00 | 97 | 1005.6 |
| 20260506020626 | 34 | 221 | 1.7 | 1.7 | 0.00 | 0.00 | 0.00 | 97 | 1005.5 |
| 20260506015725 | 34 | 212 | 1.7 | 1.7 | 0.00 | 0.00 | 0.00 | 97 | 1005.4 |
| 20260506014825 | 35 | 248 | 1.7 | 1.7 | 0.00 | 0.00 | 0.00 | 96 | 1005.1 |
| 20260506013925 | 35 | 275 | 1.7 | 2.6 | 0.00 | 0.00 | 0.00 | 96 | 1005.0 |
| 20260506013237 | 36 | 269 | 2.6 | 3.5 | 0.00 | 0.00 | 0.00 | 95 | 1005.1 |
| 20260506012335 | 36 | 269 | 2.6 | 3.5 | 0.00 | 0.00 | 0.00 | 95 | 1005.3 |
| 20260506011226 | 37 | 261 | 2.6 | 3.5 | 0.00 | 0.00 | 0.00 | 96 | 1005.0 |
| 20260506010325 | 37 | 274 | 3.5 | 3.5 | 0.00 | 0.00 | 0.00 | 99 | 1005.0 |
| 20260506005426 | 37 | 275 | 3.5 | 4.3 | 0.00 | 0.00 | 0.00 | 99 | 1004.9 |
| 20260506004739 | 37 | 257 | 3.5 | 4.3 | 0.00 | 0.00 | 0.00 | 99 | 1005.0 |
| 20260506003626 | 38 | 256 | 3.5 | 4.3 | 0.00 | 0.00 | 0.00 | 99 | 1004.7 |
| 20260506002727 | 38 | 271 | 3.5 | 4.3 | 0.00 | 0.00 | 0.00 | 98 | 1004.7 |
| 20260506001826 | 38 | 234 | 3.5 | 5.2 | 0.00 | 0.00 | 0.00 | 98 | 1004.7 |
| 20260506000925 | 38 | 262 | 2.6 | 4.3 | 0.00 | 0.00 | 0.00 | 98 | 1004.6 |
| 20260506000026 | 38 | 258 | 2.6 | 4.3 | 0.00 | 0.00 | 0.00 | 98 | 1004.4 |
| 20260505235125 | 39 | 270 | 3.5 | 4.3 | 0.00 | 0.00 | 0.00 | 97 | 1004.4 |
| 20260505234441 | 39 | 264 | 3.5 | 6.1 | 0.00 | 0.00 | 0.00 | 97 | 1004.2 |
| 20260505233325 | 39 | 254 | 4.3 | 7.0 | 0.00 | 0.00 | 0.00 | 97 | 1004.2 |
| 20260505232635 | 39 | 263 | 4.3 | 7.0 | 0.00 | 0.00 | 0.00 | 97 | 1004.1 |
| 20260505231526 | 39 | 282 | 4.3 | 6.1 | 0.00 | 0.05 | 0.00 | 95 | 1004.1 |
| 20260505230625 | 39 | 267 | 5.2 | 7.8 | 0.00 | 0.05 | 0.00 | 95 | 1004.2 |
| 20260505225726 | 40 | 276 | 6.1 | 7.8 | 0.00 | 0.05 | 0.00 | 95 | 1004.2 |
| 20260505225035 | 40 | 263 | 6.1 | 7.8 | 0.00 | 0.05 | 0.00 | 94 | 1004.0 |
| 20260505223925 | 40 | 275 | 5.2 | 9.6 | 0.00 | 0.05 | 0.00 | 94 | 1004.2 |
| 20260505223025 | 40 | 274 | 6.1 | 7.0 | 0.00 | 0.05 | 0.00 | 93 | 1004.0 |